Tracking 24120 objects as of 5-Dec-2021
HD Live streaming from Space Station
objects crossing your sky now

COSMOS 1285 DEB

Track COSMOS 1285 DEB now!


NORAD ID: 27801
Int'l Code: 1981-071Q
Perigee: 2,994.0 km
Apogee: 37,848.6 km
Inclination: 64.3 °
Period: 727.4 minutes
Semi major axis: 26792 km
RCS: 0.1262 m2 (medium)
Launch date: August 4, 1981
Source: Commonwealth of Independent States (former USSR) (CIS)
Launch site: PLESETSK MISSILE AND SPACE COMPLEX (PKMTR)

Note: This is SATELLITE DEBRIS
aabbcc
Your satellite tracking list
Your tracking list is empty




NASA's NSSDC Master Catalog

Two Line Element Set (TLE):
1 27801U 81071Q   21337.27419333  .00000674  00000-0  00000-0 0  9990
2 27801  64.3135 221.1779 6504608  45.9618  48.6364  1.97964929150769
Source of the keplerian elements: AFSPC